DURO2: Washita River Durwood, OK

                                SHEF ID:       DURO2     Washita River near Dickson, OK
STATION TYPE:
Regulating: Stage = 27.00, Flow = 32534

PRECIP PRECIP(A) STAGE STAGE(2) RIV-FLOW BAT-LOAD
in in ft ft cfs volt
Ccp-Rev Ccp-Rev Ccp-Rev Ccp-Rev Ccp-Rev Ccp-Rev
(America/Chicago)
04/21 00:00 0.00 ---- 9.22 9.20 1362 12.40
04/21 01:00 0.00 ---- 9.20 9.19 1344 12.37
04/21 02:00 0.00 ---- 9.18 9.17 1325 12.35
04/21 03:00 0.00 ---- 9.17 9.16 1316 12.34
04/21 04:00 0.00 ---- 9.16 9.15 1307 12.31
04/21 05:00 0.00 ---- 9.14 9.13 1288 12.30
04/21 06:00 0.00 ---- 9.12 9.11 1270 12.27
04/21 07:00 0.00 ---- 9.11 9.09 1261 12.25
04/21 08:00 0.00 ---- 9.09 9.08 1244 12.27
04/21 09:00 0.00 ---- 9.07 9.06 1226 12.31
04/21 10:00 0.00 ---- 9.06 9.05 1217 12.42
04/21 11:00 0.00 ---- 9.05 9.03 1208 12.49
04/21 12:00 0.00 ---- 9.03 9.01 1191 12.63
04/21 13:00 0.00 ---- 9.01 9.00 1174 13.00
04/21 14:00 0.00 ---- 9.00 8.98 1165 13.36
04/21 15:00 0.00 ---- 8.99 8.97 1157 13.41
04/21 16:00 0.00 ---- 8.97 8.96 1140 13.38
04/21 17:00 0.00 ---- 8.96 8.95 1132 13.19
04/21 18:00 0.00 ---- 8.95 8.93 1124 13.11
04/21 19:00 0.00 ---- 8.94 8.92 1115 12.85
04/21 20:00 0.00 ---- 8.92 8.91 1099 12.60
04/21 21:00 0.00 ---- 8.91 8.90 1091 12.48
04/21 22:00 0.00 ---- 8.90 8.88 1083 12.44
04/21 23:00 0.00 ---- 8.89 8.88 1075 12.42
Data processed at Wed 22Apr2026 04:36 GMT

NOTICE: If you are parsing this page

Please convert to using our Data API. Starting early 2026 we will be migrating to: https://water.usace.army.mil with modern pages rendered in JavaScript. When this migration completes you will no longer be able to scrape this page! CWMSDataAPI (CDA)

Timeseries IDs (TSIDs)

TSIDs used from left to right in the data table
DICK.Precip-Inc.Total.1Hour.1Hour.Ccp-Rev
DICK.Precip-Inc Alt.Total.1Hour.1Hour.Ccp-Rev
DICK.Stage.Inst.1Hour.0.Ccp-Rev
DICK.Flow.Inst.1Hour.0.Ccp-Rev
DICK.Volt-Battery Load.Inst.1Hour.0.Ccp-Rev

                            

All information presented herein is the property of the government of the United States of America and may be revised or deleted at any time without prior notice. Dissemination of this information without the expressed written consent of the Public Affairs Office, Tulsa District U.S. Army Corps of Engineers is strictly prohibited. These data are gathered electronically and, as presented, have NOT undergone any form of quality control. These data are NOT guaranteed to be valid or correct.